Location: Trani
(41.2830°N, 16.4170°E)
Time: 08:15:27
(UTC+02:00)

X-37B - Visible Passes

Search period start: 02 August 2021 00:00
Search period end: 12 August 2021 00:00
Orbit: 383 x 392 km, 45.0° (Epoch: 01 July)

Date Brightness Start Highest point End Pass type
(mag) Time Alt. Az. Time Alt. Az. Time Alt. Az.
02 Aug 0.7 04:35:26 25° SW 04:37:05 65° SSE 04:40:16 10° ENE visible
03 Aug 2.0 03:39:35 31° ESE 03:39:35 31° ESE 03:41:47 10° E visible
03 Aug 1.1 05:12:15 10° W 05:15:23 54° NNW 05:18:32 10° ENE visible
04 Aug 0.6 04:15:59 40° W 04:16:58 78° NNW 04:20:11 10° ENE visible
05 Aug 2.4 03:20:05 28° E 03:20:05 28° E 03:21:47 10° ENE visible
05 Aug 1.6 04:52:22 10° W 04:55:22 43° N 04:58:27 10° ENE visible
06 Aug 1.1 03:56:29 49° NW 03:56:55 54° NNW 04:00:04 10° ENE visible
07 Aug 3.2 03:00:38 19° ENE 03:00:38 19° ENE 03:01:42 10° ENE visible
07 Aug 1.8 04:32:54 14° WNW 04:35:22 39° N 04:38:25 10° ENE visible
08 Aug 1.7 03:37:06 42° N 03:37:06 42° N 03:39:58 10° ENE visible
08 Aug 1.5 05:10:45 10° WNW 05:13:52 48° N 05:16:59 10° E visible
09 Aug 3.9 02:41:21 12° ENE 02:41:21 12° ENE 02:41:35 10° ENE visible
09 Aug 1.8 04:13:38 21° NW 04:15:23 41° N 04:18:27 10° ENE visible
10 Aug 2.7 03:18:01 28° NE 03:18:01 28° NE 03:19:56 10° ENE visible
10 Aug 0.9 04:50:38 10° WNW 04:53:49 66° NNE 04:57:00 10° E visible
11 Aug 1.4 03:54:51 42° NNW 03:55:24 48° NNE 03:58:30 10° E visible
